User: anonymous   Login
Location: Unspecified
(0.0000°N, 0.0000°E)
Time: 09:29:46
(UTC+00:00)
Language:

Navstar 6 - Orbit

View from above orbital plane
View from above orbital plane
View from above satellite
View from above satellite

Ground track
Ground track

The orbit data is extracted from the following two-line orbital elements,

1 11783U 80032A   18018.30185562 -.00000052 +00000-0 +00000-0 0  9999
2 11783 063.5686 351.6570 0509869 060.1062 107.6615 02.03455736279251
Epoch (UTC): 18 January 2018 07:14:40
Eccentricity: 0.0509869
inclination: 63.5686°
perigee height: 18588 km
apogee height: 21271 km
right ascension of ascending node: 351.6570°
argument of perigee: 60.1062°
revolutions per day: 2.03455736
mean anomaly at epoch: 107.6615°
orbit number at epoch: 27925

The dashed part of the orbit path shows where the satellite is in the earth's shadow,  

DLR